telebank.co.il alexa rank chart, telebank.co.il alexa rank daily changes

telebank.co.il alexa rank chart, telebank.co.il alexa rank daily changes

telebank.co.il
Actual rank:
30 118

RANK HISTORY

Date Rank Diff
2017/11/15 30 118 -353
2017/11/14 30 471 -908
2017/11/13 31 379 +201
2017/11/12 31 178 +323
2017/11/11 30 855 -263
2017/11/10 31 118 -3
2017/11/09 31 121 -383
2017/11/08 31 504 -386
2017/11/07 31 890 -643
2017/11/06 32 533 -131
2017/11/05 32 664 +409
2017/11/04 32 255 -41
2017/11/03 32 296 +437
2017/11/02 31 859 -475
2017/11/01 32 334 -53
2017/10/31 32 387 -480
2017/10/30 32 867 +303
2017/10/29 32 564 +426
2017/10/28 32 138 +145
2017/10/27 31 993 +249
2017/10/26 31 744 +47
2017/10/25 31 697 -197
2017/10/24 31 894 -808
2017/10/23 32 702 -194
2017/10/22 32 896 +141
2017/10/21 32 755 +167
2017/10/20 32 588 +250
2017/10/19 32 338 +213
2017/10/18 32 125 -332
2017/10/17 32 457 -543
2017/10/16 33 000 +1 220
2017/10/14 31 780 +861
2017/10/13 30 919 +651
2017/10/12 30 268 +123
2017/10/11 30 145 -362
2017/10/10 30 507 -150
2017/10/09 30 657 +553
2017/10/08 30 104 +350
2017/10/07 29 754 +619
2017/10/06 29 135 +535
2017/10/05 28 600 +170
2017/10/04 28 430 -300
2017/10/03 28 730 -372
2017/10/02 29 102 +361
2017/10/01 28 741 +211
2017/09/30 28 530 +234
2017/09/29 28 296 -10
2017/09/28 28 306 -316
2017/09/27 28 622 -353
2017/09/26 28 975 -166
2017/09/25 29 141 +247
2017/09/24 28 894 +338
2017/09/23 28 556 +507
2017/09/22 28 049 -443
2017/09/20 28 492 -350
2017/09/19 28 842 -347
2017/09/18 29 189 +225
2017/09/17 28 964 +134
2017/09/16 28 830

WIDGET FOR YOUR SITE

DOMAINS WITH THE NEAREST RANK

Domain Rank
sextubefuck.com 30 113
jerb.gdn 30 114
erodougazo.com 30 115
fidelityrewards.com 30 116
provogue.com 30 117
telebank.co.il 30 118
ename.com 30 119
tagsis.com 30 120
humankinetics.com 30 121
taxfoundation.org 30 122
vosteran.com 30 123

DOMAINS WITH THE NEAREST RANK BY TLD .co.il

Domain Rank
mizrahi-tefahot.co.il 23 018
strauss-water-campaign.co.il 23 366
tapuz.co.il 25 487
fxp.co.il 26 127
inn.co.il 27 674
telebank.co.il 30 118
kikar.co.il 32 820
alpha.co.il 33 913
leumi-card.co.il 34 243
clalit.co.il 34 834
next.co.il 37 196